Location: Brno
(49.2000°N, 16.6330°E)
Time: 00:48:40
(UTC+02:00)

Transit 4A - Pass Details

Date: 02 August 2021
Orbit: 870 x 974 km, 66.8° (Epoch: 26 September)

Event Time Altitude Azimuth Distance (km) Brightness Sun altitude
Rises 09:38:53 0° 321° (NW) 3,476 10.5 38.9°
Reaches altitude 10° 09:41:25 10° 316° (NW) 2,541 9.9 39.3°
Maximum altitude 09:47:03 50° 243° (WSW) 1,122 8.6 40.2°
Drops below altitude 10° 09:52:46 10° 170° (S) 2,579 10.7 41.0°
Sets 09:55:22 0° 165° (SSE) 3,532 11.3 41.4°
